Location: Ottawa
(45.4170°N, 75.7000°W)
Time: 10:04:09
(UTC-05:00)

Daily predictions for brighter satellites

Satellite Brightness Start Highest point End
(mag) Time Altitude Azimuth Time Altitude Azimuth Time Altitude Azimuth
Cosmos 1802 Rocket 4.2 16:46:05 10° SSW 16:52:13 77° W 16:58:23 10° N
ALOS 3.9 16:53:57 10° E 16:56:17 14° ENE 16:58:37 10° NNE
Cosmos 1782 4.4 16:56:38 10° SE 16:59:16 17° E 17:01:53 10° NE
Cosmos 1844 Rocket 3.0 16:55:13 10° SW 17:00:51 70° WNW 17:06:29 10° NNE
Cosmos 1816 Rocket 4.5 16:55:00 10° N 17:01:08 70° E 17:07:15 10° SSE
SMAP 3.3 16:58:46 10° SE 17:03:14 49° ENE 17:07:44 10° N
SJ-12 4.0 16:59:18 10° SSE 17:03:27 89° E 17:07:38 10° NNW
CZ-4C R/B 3.6 16:58:00 10° NNW 17:03:58 31° NNE 17:10:36 10° E
CENTAUR R/B 2.8 17:00:02 10° SW 17:06:08 72° NW 17:13:13 10° NE
IDEFIX/ARIANE 42P 3.9 17:05:08 10° S 17:10:07 44° W 17:15:07 10° NNW
Cosmos 1633 3.6 17:07:15 10° NNE 17:10:19 24° ENE 17:13:23 10° SE
Cosmos 1782 Rocket 4.5 17:06:49 10° NNE 17:10:30 26° ENE 17:14:10 10° SE
Cosmos 1725 Rocket 4.1 17:04:25 10° S 17:10:43 89° E 17:17:01 10° N
BREEZE-M R/B 2.1 17:10:24 10° WNW 17:12:52 83° SSW 17:16:30 10° ESE
Meteor 2-12 Rocket 4.5 17:11:09 10° S 17:17:14 88° ESE 17:23:21 10° N
COSMO-SKYMED 1 3.9 17:14:21 10° NE 17:17:39 21° E 17:20:56 10° SE
YAOGAN 1 3.0 17:15:40 10° SE 17:19:39 38° ENE 17:23:41 10° N
CSL-04 Debris 4.2 17:17:01 10° SSE 17:22:27 85° ENE 17:27:53 10° NNW
SPOT 3 Rocket 4.3 17:20:27 10° SE 17:24:58 31° ENE 17:29:29 10° N
Cosmos 2346 Rocket 4.5 17:20:24 10° N 17:26:34 87° E 17:32:46 10° S
Cosmos 1833 Rocket 2.8 17:22:39 10° NNW 17:28:09 50° ENE 17:33:36 10° SE
BREEZE-M DEB (TANK) 3.5 17:27:09 10° S 17:28:50 20° SE 17:29:58 16° E
Tsikada Rocket 4.5 17:23:42 10° NNW 17:29:48 66° W 17:35:54 10° S
USA 161 3.8 17:32:33 10° NW 17:33:35 13° WNW 17:34:39 10° WSW
Meteor 1-14 Rocket 4.2 17:28:16 10° N 17:33:58 88° W 17:39:33 10° S
Cosmos 2297 4.2 17:31:58 10° S 17:37:13 39° ESE 17:41:49 13° NE
Cosmos 2221 Rocket 4.1 17:36:10 10° SSE 17:40:12 36° E 17:44:16 10° NNE
Cosmos 2278 Rocket 2.2 17:34:53 10° SSW 17:40:34 88° WNW 17:46:18 10° NNE
Cosmos 1703 Rocket 3.6 17:36:24 10° S 17:40:46 59° E 17:45:11 10° NNE
CORIOLIS 4.2 17:36:16 10° SSE 17:41:44 86° WSW 17:47:13 10° NNW
NOAA 12 4.4 17:45:45 10° SE 17:50:45 44° ENE 17:55:47 10° N
Meteor 1-11 Rocket 4.2 17:45:31 10° N 17:50:59 38° ENE 17:56:18 10° SE
IRS-1A Rocket 4.3 17:45:29 10° SSE 17:51:18 88° WSW 17:57:02 10° NNW
Meteor 1-28 Rocket 3.2 17:48:45 10° N 17:52:28 82° WNW 17:56:11 10° SSW
CZ-2C R/B 3.6 17:49:28 10° NNE 17:53:58 86° ESE 17:58:32 10° SSW
Cosmos 44 Rocket 3.3 17:49:12 10° NNW 17:53:59 57° NE 17:58:41 11° SE
Okean 2 Rocket 3.3 17:51:06 10° N 17:55:31 49° ENE 17:59:54 10° SSE
Cosmos 292 Rocket 3.7 17:56:38 10° NNW 18:01:20 56° ENE 18:06:00 10° SE
Cosmos 1606 2.5 17:57:37 10° S 18:01:25 88° E 18:05:12 10° N
Cosmos 1441 Rocket 3.9 17:58:27 10° SSE 18:01:47 32° E 18:01:47 32° E
Cosmos 405 3.3 17:59:57 10° N 18:03:25 43° ENE 18:06:52 10° SSE
Cosmos 1908 Rocket 4.4 17:59:34 10° NNW 18:03:48 51° W 18:07:59 10° S
Landsat 4 3.7 18:00:55 10° NNE 18:04:43 86° WNW 18:08:31 10° SSW
Cosmos 1464 Rocket 3.9 17:59:27 10° S 18:05:30 67° E 18:11:37 10° NNE
SKYMED 2 3.5 18:01:55 12° NNE 18:05:58 64° ESE 18:10:15 10° S
Lacrosse 5 3.5 18:02:23 10° WNW 18:06:21 22° N 18:08:26 18° NNE
COSMOS 2455 3.9 18:02:52 10° WSW 18:08:31 41° NW 18:14:14 10° NNE
MTI 3.7 18:07:22 25° NNE 18:09:07 87° W 18:12:20 10° SSW
CZ-4 R/B 2.7 18:06:16 10° S 18:09:55 40° W 18:13:35 10° NNW
SL-27 R/B 4.1 18:07:11 10° NW 18:10:15 34° WSW 18:13:19 10° S
EO 1 Del DPAF 3.1 18:08:14 24° NNE 18:10:24 68° ESE 18:14:12 10° S
MOS 1 4.3 18:06:42 10° SSE 18:12:26 89° W 18:18:10 10° NNW
Cosmos 540 Rocket 3.6 18:07:17 10° NNW 18:12:28 76° WSW 18:17:36 10° SSE
USA 234 3.6 18:11:19 28° ENE 18:14:22 45° SE 18:20:34 10° SSW
METEOR-M 4.3 18:10:07 10° S 18:15:26 76° WSW 18:20:49 10° NNW
MONITOR-E 4.2 18:13:31 10° S 18:16:34 75° WSW 18:19:38 10° NNW
COSMOS 2487 4.3 18:13:21 10° N 18:14:35 19° N 18:14:35 19° N
Cosmos 44 3.2 18:13:22 10° NW 18:18:03 86° WSW 18:22:41 12° SSE
Cosmos 2082 Rocket 2.4 18:12:47 10° NNW 18:18:29 71° WSW 18:24:05 10° SSE
Cosmos 968 Rocket 3.9 18:14:31 10° S 18:19:18 38° ESE 18:19:34 38° E
Cosmos 1503 Rocket 3.9 18:14:30 10° SSW 18:19:47 88° WNW 18:23:43 18° NNE
Meteor 2-6 Rocket 4.1 18:18:17 10° S 18:23:45 90° E 18:29:23 10° N
Meteor 2-20 Rocket 4.4 18:18:42 10° N 18:24:44 58° ENE 18:30:42 10° SSE
Cosmos 1602 3.6 18:23:09 10° N 18:27:01 87° W 18:30:52 10° S
ERS-2 3.3 18:23:55 10° S 18:27:27 44° W 18:31:00 10° NNW
BREEZE-M DEB (TANK) 2.3 18:25:11 10° WNW 18:27:36 59° NNE 18:27:37 59° NNE
Okean 1-7 3.5 18:25:02 10° SSW 18:29:21 61° W 18:33:44 10° N
DMSP B5D1-3 4.4 18:28:50 23° NNE 18:32:04 71° ESE 18:37:11 10° S
ALOS 2.3 18:28:24 10° S 18:33:05 80° WSW 18:37:47 10° NNW
Cosmos 1782 4.2 18:31:30 10° SSW 18:35:17 39° WNW 18:39:05 10° N
Cosmos 405 Rocket 2.7 18:32:30 10° SSW 18:36:17 77° W 18:36:33 72° NNW
FengYun 1-2 T 4.1 18:39:44 19° SSE 18:43:47 68° ENE 18:49:21 10° N
CZ-4C R/B 2.8 18:46:13 10° NW 18:53:22 88° SW 18:58:04 27° SE
COSMO-SKYMED 1 3.8 18:50:33 14° N 18:53:58 40° WNW 18:58:01 10° SW
Meteor 1-5 Rocket 3.9 18:49:10 10° N 18:54:32 78° ENE 18:54:42 77° ESE
Meteor 1-27 Rocket 3.9 18:50:30 10° SSW 18:56:24 78° W 19:01:55 12° N
FENGYUN 3A 4.4 18:52:48 10° S 18:58:05 53° W 19:03:23 10° NNW
CENTAUR R/B 4.3 18:52:49 10° WNW 18:58:10 25° NNW 19:01:57 17° NNE
USA 229 DEB 4.0 18:59:49 10° SSW 19:05:14 48° SSE 19:05:14 48° SSE
USA 229 4.0 18:59:56 10° SSW 19:05:17 47° SSE 19:05:17 47° SSE
Nadezhda 4 Rocket 4.4 19:08:24 10° NNW 19:14:24 60° W 19:20:23 10° S
Cosmos 2369 Rocket 4.4 19:10:53 10° S 19:11:27 13° S 19:11:27 13° S
Cosmos 1092 Rocket 4.3 19:26:27 10° NNW 19:32:30 62° W 19:38:35 10° S
Lacrosse 5 4.2 19:46:20 10° NW 19:47:38 16° NNW 19:47:38 16° NNW
USA 234 3.7 19:58:41 56° WNW 19:58:41 56° WNW 20:03:59 10° WSW
